User: anonymous   Login
Location: Unspecified
(0.0000°N, 0.0000°E)
Time: 14:50:57
(UTC+02:00)
Language:

CZ-4B DEB - Orbit

View from above orbital plane
View from above orbital plane
View from above satellite
View from above satellite

Ground track
Ground track

The orbit data is extracted from the following two-line orbital elements,

1 33411U 08053D   16181.13072514  .00011235  00000-0  25548-3 0  9997
2 33411  97.4509 211.9505 0007068 143.9265 216.2461 15.43139911421615
Epoch (UTC): 29 June 2016 03:08:14
Eccentricity: 0.0007068
inclination: 97.4509°
perigee height: 432 km
apogee height: 441 km
right ascension of ascending node: 211.9505°
argument of perigee: 143.9265°
revolutions per day: 15.43139911
mean anomaly at epoch: 216.2461°
orbit number at epoch: 42161

The dashed part of the orbit path shows where the satellite is in the earth's shadow,  

DLR